Belmar-Farmingdale, NJ

1:20 AM EDT on March 27, 2017 (GMT -0400)
Allaire

Weather History for KBLM - May, 2014

Change the Weather History Date:

Saturday, May 10, 2014

  Actual Average Record
Temperature  
Mean Temperature 68 °F -  
Max Temperature 82 °F 65 °F 82 °F (2014)
Min Temperature 55 °F 48 °F 44 °F (2005)
Cooling Degree Days 4    
Growing Degree Days 18 (Base 50)    
Moisture  
Dew Point 58 °F    
Average Humidity 74    
Maximum Humidity 94    
Minimum Humidity 42    
Precipitation  
Precipitation 0.19 in - - ()
Sea Level Pressure  
Sea Level Pressure 29.92 in    
Wind  
Wind Speed 7 mph (WSW)    
Max Wind Speed 20 mph    
Max Gust Speed 26 mph    
Visibility 7 miles    
Events Thunderstorm    
Averages and records for this station are not official NWS values.
T = Trace of Precipitation, MM = Missing Value Source: NWS Daily Summary

Daily Weather History Graph

Daily Weather History Graph

Search for Another Location

Airport or City:

Trip Planner

Search our weather history database for the weather conditions in past years. The results will help you decide how hot, cold, wet, or windy it might be!

Date:

Astronomy

May. 10, 2014 Rise Set
Actual Time 5:45 AM EDT 8:00 PM EDT
Civil Twilight 5:15 AM EDT 8:30 PM EDT
Nautical Twilight 4:38 AM EDT 9:08 PM EDT
Astronomical Twilight 3:57 AM EDT 9:49 PM EDT
Moon 3:53 PM EDT (5/10) 3:17 AM EDT (5/10)
Length of Visible Light 15h 15m
Length of Day
14h 14m
Waxing Gibbous, 82% of the Moon is Illuminated
May 10
Waxing Gibbous
May 14
Full
May 21
Last Quarter
May 28
New
Jun 5
First Quarter

Hourly Weather History & Observations

Time (EDT) Temp. Heat Index Dew Point Humidity Pressure Visibility Wind Dir Wind Speed Gust Speed Precip Events Conditions
12:15 AM 57.2 °F - 53.6 °F 88% 29.99 in 0.2 mi SE 3.5 mph - N/A   Overcast
12:35 AM 57.2 °F - 55.4 °F 94% 29.97 in 0.2 mi East 4.6 mph - N/A   Overcast
12:55 AM 57.2 °F - 53.6 °F 88% 29.97 in 0.2 mi SE 6.9 mph - N/A   Overcast
1:15 AM 57.2 °F - 53.6 °F 88% 29.96 in 0.5 mi SE 6.9 mph - N/A   Overcast
1:35 AM 55.4 °F - 51.8 °F 88% 29.96 in 0.5 mi South 5.8 mph - N/A   Overcast
1:55 AM 55.4 °F - 51.8 °F 88% 29.95 in 0.2 mi South 4.6 mph - N/A   Overcast
2:15 AM 55.4 °F - 51.8 °F 88% 29.94 in 0.2 mi South 3.5 mph - N/A   Overcast
2:35 AM 55.4 °F - 51.8 °F 88% 29.92 in 0.5 mi SW 3.5 mph - N/A   Overcast
2:55 AM 55.4 °F - 51.8 °F 88% 29.93 in 0.5 mi SW 3.5 mph - N/A   Overcast
3:15 AM 57.2 °F - 53.6 °F 88% 29.92 in 0.5 mi SW 4.6 mph - N/A   Overcast
3:35 AM 57.2 °F - 53.6 °F 88% 29.92 in 0.5 mi SW 4.6 mph - N/A   Overcast
3:55 AM 57.2 °F - 53.6 °F 88% 29.92 in 0.8 mi WSW 4.6 mph - N/A   Overcast
4:15 AM 57.2 °F - 53.6 °F 88% 29.93 in 0.8 mi West 4.6 mph - N/A   Overcast
4:35 AM 57.2 °F - 53.6 °F 88% 29.92 in 2.5 mi West 3.5 mph - N/A   Overcast
4:55 AM 57.2 °F - 53.6 °F 88% 29.92 in 2.0 mi Calm Calm - N/A   Overcast
5:15 AM 57.2 °F - 53.6 °F 88% 29.92 in 3.0 mi West 3.5 mph - N/A   Overcast
5:35 AM 57.2 °F - 53.6 °F 88% 29.92 in 3.0 mi SW 4.6 mph - N/A   Overcast
5:55 AM 57.2 °F - 55.4 °F 94% 29.93 in 3.0 mi SW 5.8 mph - N/A   Overcast
6:15 AM 59.0 °F - 55.4 °F 88% 29.93 in 1.2 mi Calm Calm - N/A   Overcast
6:35 AM 59.0 °F - 55.4 °F 88% 29.94 in 0.8 mi SW 3.5 mph - N/A   Overcast
6:55 AM 59.0 °F - 55.4 °F 88% 29.94 in 3.0 mi SW 5.8 mph - N/A   Scattered Clouds
7:15 AM 59.0 °F - 55.4 °F 88% 29.94 in 4.0 mi WSW 5.8 mph - N/A   Clear
7:35 AM 60.8 °F - 55.4 °F 82% 29.95 in 5.0 mi SW 5.8 mph - N/A   Clear
7:55 AM 60.8 °F - 55.4 °F 82% 29.95 in 6.0 mi WSW 6.9 mph - N/A   Partly Cloudy
8:15 AM 60.8 °F - 57.2 °F 88% 29.96 in 7.0 mi SW 5.8 mph - N/A   Mostly Cloudy
8:35 AM 62.6 °F - 57.2 °F 82% 29.95 in 7.0 mi WSW 6.9 mph - N/A   Mostly Cloudy
8:55 AM 62.6 °F - 57.2 °F 82% 29.96 in 8.0 mi WSW 6.9 mph - N/A   Clear
9:15 AM 62.6 °F - 59.0 °F 88% 29.95 in 8.0 mi WSW 8.1 mph - N/A   Clear
9:35 AM 64.4 °F - 60.8 °F 88% 29.95 in 10.0 mi WSW 10.4 mph - N/A   Clear
9:55 AM 66.2 °F - 60.8 °F 83% 29.95 in 10.0 mi WSW 10.4 mph - N/A   Clear
10:15 AM 68.0 °F - 60.8 °F 78% 29.95 in 10.0 mi WSW 11.5 mph - N/A   Clear
10:35 AM 69.8 °F - 60.8 °F 73% 29.95 in 10.0 mi WSW 10.4 mph - N/A   Clear
10:55 AM 73.4 °F - 60.8 °F 65% 29.95 in 10.0 mi WSW 13.8 mph 19.6 mph N/A   Clear
11:15 AM 75.2 °F - 60.8 °F 61% 29.95 in 10.0 mi West 10.4 mph - N/A   Clear
11:35 AM 75.2 °F - 62.6 °F 65% 29.94 in 10.0 mi WSW 11.5 mph - N/A   Clear
11:55 AM 78.8 °F - 62.6 °F 57% 29.94 in 10.0 mi West 11.5 mph 19.6 mph N/A   Clear
12:15 PM 78.8 °F - 60.8 °F 54% 29.94 in 10.0 mi West 15.0 mph - N/A   Clear
12:35 PM 78.8 °F - 60.8 °F 54% 29.93 in 10.0 mi WSW 11.5 mph 17.3 mph N/A   Clear
12:55 PM 80.6 °F 81.8 °F 62.6 °F 54% 29.93 in 10.0 mi West 12.7 mph 18.4 mph N/A   Clear
1:15 PM 82.4 °F 83.4 °F 62.6 °F 51% 29.92 in 10.0 mi West 12.7 mph 16.1 mph N/A   Scattered Clouds
1:35 PM 82.4 °F 82.9 °F 60.8 °F 48% 29.91 in 10.0 mi WSW 12.7 mph 17.3 mph N/A   Mostly Cloudy
1:55 PM 80.6 °F 81.5 °F 60.8 °F 51% 29.90 in 10.0 mi SW 9.2 mph 17.3 mph N/A   Scattered Clouds
2:15 PM 82.4 °F 82.9 °F 60.8 °F 48% 29.89 in 10.0 mi SW 11.5 mph 19.6 mph N/A   Scattered Clouds
2:35 PM 82.4 °F 82.9 °F 60.8 °F 48% 29.87 in 10.0 mi SW 11.5 mph 24.2 mph N/A   Scattered Clouds
2:55 PM 82.4 °F 82.9 °F 60.8 °F 48% 29.87 in 10.0 mi SW 12.7 mph 21.9 mph N/A   Mostly Cloudy
3:15 PM 82.4 °F 82.0 °F 57.2 °F 42% 29.88 in 10.0 mi WSW 16.1 mph 23.0 mph N/A   Mostly Cloudy
3:35 PM 68.0 °F - 57.2 °F 68% 29.90 in 10.0 mi West 19.6 mph 25.3 mph 0.10 in Thunderstorm Thunderstorm
3:55 PM 66.2 °F - 57.2 °F 73% 29.88 in 10.0 mi Calm Calm - 0.17 in   Overcast
4:15 PM 69.8 °F - 60.8 °F 73% 29.87 in 10.0 mi WNW 3.5 mph - N/A   Scattered Clouds
4:35 PM 71.6 °F - 60.8 °F 69% 29.88 in 10.0 mi WSW 5.8 mph - N/A Thunderstorm Scattered Clouds
4:55 PM 69.8 °F - 62.6 °F 78% 29.89 in 10.0 mi West 13.8 mph 26.5 mph 0.01 in   Mostly Cloudy
5:15 PM 69.8 °F - 60.8 °F 73% 29.88 in 10.0 mi WSW 15.0 mph 26.5 mph N/A   Overcast
5:35 PM 68.0 °F - 59.0 °F 73% 29.88 in 10.0 mi West 10.4 mph 17.3 mph 0.01 in   Mostly Cloudy
5:55 PM 68.0 °F - 60.8 °F 78% 29.87 in 10.0 mi West 10.4 mph 18.4 mph 0.01 in   Scattered Clouds
6:15 PM 69.8 °F - 60.8 °F 73% 29.87 in 10.0 mi West 10.4 mph 16.1 mph N/A   Partly Cloudy
6:35 PM 69.8 °F - 59.0 °F 68% 29.87 in 10.0 mi West 6.9 mph 17.3 mph N/A   Partly Cloudy
6:55 PM 68.0 °F - 59.0 °F 73% 29.87 in 10.0 mi West 9.2 mph - N/A   Clear
7:15 PM 68.0 °F - 59.0 °F 73% 29.89 in 10.0 mi WSW 13.8 mph - N/A   Clear
7:35 PM 69.8 °F - 59.0 °F 68% 29.89 in 10.0 mi WSW 11.5 mph 19.6 mph N/A   Scattered Clouds
7:55 PM 69.8 °F - 59.0 °F 68% 29.89 in 10.0 mi SW 9.2 mph - N/A   Overcast
8:15 PM 69.8 °F - 57.2 °F 64% 29.90 in 10.0 mi SW 10.4 mph - N/A   Overcast
8:35 PM 69.8 °F - 59.0 °F 68% 29.91 in 10.0 mi WSW 10.4 mph - N/A   Mostly Cloudy
8:55 PM 69.8 °F - 59.0 °F 68% 29.92 in 10.0 mi WSW 9.2 mph - N/A   Partly Cloudy
9:15 PM 69.8 °F - 57.2 °F 64% 29.91 in 10.0 mi SW 8.1 mph - N/A   Scattered Clouds
9:35 PM 69.8 °F - 57.2 °F 64% 29.91 in 10.0 mi SW 6.9 mph - N/A   Mostly Cloudy
9:55 PM 69.8 °F - 59.0 °F 68% 29.92 in 10.0 mi SW 9.2 mph - N/A   Overcast
10:15 PM 69.8 °F - 59.0 °F 68% 29.92 in 10.0 mi SW 6.9 mph - N/A   Overcast
10:35 PM 69.8 °F - 59.0 °F 68% 29.92 in 10.0 mi SW 8.1 mph - N/A   Overcast
10:55 PM 69.8 °F - 59.0 °F 68% 29.91 in 10.0 mi WSW 8.1 mph - N/A   Overcast
11:15 PM 68.0 °F - 59.0 °F 73% 29.90 in 10.0 mi SW 5.8 mph - N/A   Mostly Cloudy
11:35 PM 68.0 °F - 59.0 °F 73% 29.90 in 10.0 mi WSW 5.8 mph - N/A   Overcast
11:55 PM 68.0 °F - 59.0 °F 73% 29.90 in 10.0 mi SW 6.9 mph - N/A   Overcast